When you browse on this site, cookies collect data to enhance your experience and personalize the content and advertising you see.
Visit our Privacy Policy to learn more. By continuing to use the site, you agree to this use of cookies and data.

Stündliche Wetter Mineral del Monte

Heute, 15 Juli, Mittwoch

Zeit Temperatur Niederschläge Wind Luftdruck Luftfeuchtigkeit
00:00 +11°C° 0 mm 1 m/S 546 mmHg 94%
01:00 +9°C° 0 mm 0 m/S 545 mmHg 93%
02:00 +9°C° 0 mm 0 m/S 545 mmHg 93%
03:00 +9°C° 0 mm 0 m/S 545 mmHg 93%
04:00 +10°C° 0 mm 1 m/S 545 mmHg 92%
05:00 +9°C° 0 mm 1 m/S 544 mmHg 92%
06:00 +12°C° 0 mm 1 m/S 546 mmHg 83%
07:00 +14°C° 0 mm 1 m/S 548 mmHg 75%
08:00 +16°C° 0 mm 1 m/S 549 mmHg 66%
09:00 +18°C° 0.3 mm 1 m/S 549 mmHg 62%
10:00 +19°C° 0.3 mm 1 m/S 550 mmHg 59%
11:00 +20°C° 0.3 mm 2 m/S 550 mmHg 55%
12:00 +19°C° 1.8 mm 2 m/S 549 mmHg 60%
13:00 +19°C° 1.8 mm 3 m/S 549 mmHg 64%
14:00 +18°C° 1.8 mm 3 m/S 548 mmHg 68%
15:00 +17°C° 1.2 mm 3 m/S 547 mmHg 72%
16:00 +16°C° 1.2 mm 3 m/S 547 mmHg 75%
17:00 +16°C° 1.2 mm 3 m/S 546 mmHg 78%
18:00 +13°C° 0.6 mm 3 m/S 546 mmHg 83%
19:00 +12°C° 0.6 mm 3 m/S 546 mmHg 88%
20:00 +11°C° 0.6 mm 3 m/S 546 mmHg 92%
21:00 +12°C° 0.1 mm 2 m/S 546 mmHg 93%
22:00 +10°C° 0.1 mm 2 m/S 546 mmHg 94%
23:00 +10°C° 0.1 mm 2 m/S 546 mmHg 94%

Morgen, 16 Juli, Donnerstag

Zeit Temperatur Niederschläge Wind Luftdruck Luftfeuchtigkeit
00:00 +11°C° 0 mm 1 m/S 546 mmHg 94%
01:00 +10°C° 0 mm 1 m/S 545 mmHg 94%
02:00 +10°C° 0 mm 1 m/S 545 mmHg 93%
03:00 +9°C° 0 mm 0 m/S 545 mmHg 92%
04:00 +8°C° 0 mm 0 m/S 545 mmHg 91%
05:00 +8°C° 0 mm 0 m/S 545 mmHg 90%
06:00 +10°C° 0 mm 0 m/S 546 mmHg 83%
07:00 +12°C° 0 mm 0 m/S 548 mmHg 76%
08:00 +14°C° 0 mm 0 m/S 549 mmHg 69%
09:00 +18°C° 0 mm 1 m/S 550 mmHg 61%
10:00 +18°C° 0 mm 2 m/S 550 mmHg 54%
11:00 +20°C° 0 mm 3 m/S 551 mmHg 47%
12:00 +19°C° 0.4 mm 4 m/S 550 mmHg 52%
13:00 +19°C° 0.4 mm 4 m/S 550 mmHg 57%
14:00 +19°C° 0.4 mm 5 m/S 549 mmHg 63%
15:00 +17°C° 0.8 mm 5 m/S 548 mmHg 67%
16:00 +15°C° 0.8 mm 4 m/S 548 mmHg 72%
17:00 +14°C° 0.8 mm 4 m/S 547 mmHg 76%
18:00 +13°C° 0.3 mm 3 m/S 547 mmHg 81%
19:00 +12°C° 0.3 mm 3 m/S 546 mmHg 87%
20:00 +10°C° 0.3 mm 2 m/S 546 mmHg 92%
21:00 +10°C° 0 mm 2 m/S 546 mmHg 92%
22:00 +9°C° 0 mm 2 m/S 546 mmHg 92%
23:00 +9°C° 0 mm 2 m/S 546 mmHg 92%

übermorgen, 17 Juli, Freitag

Zeit Temperatur Niederschläge Wind Luftdruck Luftfeuchtigkeit
00:00 +10°C° 0 mm 1 m/S 546 mmHg 92%
01:00 +9°C° 0 mm 1 m/S 545 mmHg 92%
02:00 +9°C° 0 mm 1 m/S 545 mmHg 92%
03:00 +9°C° 0 mm 1 m/S 545 mmHg 90%
04:00 +7°C° 0 mm 0 m/S 545 mmHg 88%
05:00 +7°C° 0 mm 0 m/S 545 mmHg 86%
06:00 +9°C° 0 mm 0 m/S 546 mmHg 76%
07:00 +11°C° 0 mm 0 m/S 548 mmHg 66%
08:00 +14°C° 0 mm 0 m/S 549 mmHg 55%
09:00 +16°C° 0 mm 1 m/S 550 mmHg 50%
10:00 +19°C° 0 mm 1 m/S 550 mmHg 45%
11:00 +19°C° 0 mm 2 m/S 551 mmHg 40%
12:00 +19°C° 0.5 mm 3 m/S 550 mmHg 47%
13:00 +18°C° 0.5 mm 3 m/S 549 mmHg 54%
14:00 +17°C° 0.5 mm 4 m/S 548 mmHg 61%
15:00 +17°C° 1.1 mm 4 m/S 548 mmHg 65%
16:00 +15°C° 1.1 mm 4 m/S 547 mmHg 69%
17:00 +14°C° 1.1 mm 4 m/S 547 mmHg 73%
18:00 +13°C° 0.5 mm 3 m/S 547 mmHg 78%
19:00 +11°C° 0.5 mm 3 m/S 546 mmHg 83%
20:00 +10°C° 0.5 mm 3 m/S 546 mmHg 89%
21:00 +10°C° 0.1 mm 2 m/S 546 mmHg 86%
22:00 +10°C° 0.1 mm 2 m/S 546 mmHg 84%
23:00 +11°C° 0.1 mm 1 m/S 546 mmHg 81%

18 Juli, Samstag

Zeit Temperatur Niederschläge Wind Luftdruck Luftfeuchtigkeit
00:00 +10°C° 0 mm 1 m/S 546 mmHg 80%
01:00 +10°C° 0 mm 1 m/S 546 mmHg 80%
02:00 +10°C° 0 mm 1 m/S 545 mmHg 79%
03:00 +9°C° 0 mm 0 m/S 545 mmHg 80%
04:00 +8°C° 0 mm 0 m/S 545 mmHg 81%
05:00 +8°C° 0 mm 0 m/S 544 mmHg 82%
06:00 +11°C° 0 mm 1 m/S 546 mmHg 74%
07:00 +13°C° 0 mm 1 m/S 547 mmHg 65%
08:00 +15°C° 0 mm 1 m/S 549 mmHg 56%
09:00 +16°C° 0 mm 2 m/S 549 mmHg 51%
10:00 +17°C° 0 mm 3 m/S 550 mmHg 45%
11:00 +19°C° 0 mm 4 m/S 550 mmHg 40%
12:00 +19°C° 0.1 mm 4 m/S 550 mmHg 44%
13:00 +17°C° 0.1 mm 5 m/S 549 mmHg 49%
14:00 +17°C° 0.1 mm 5 m/S 548 mmHg 53%
15:00 +16°C° 0.4 mm 5 m/S 548 mmHg 57%
16:00 +15°C° 0.4 mm 5 m/S 547 mmHg 62%
17:00 +14°C° 0.4 mm 4 m/S 547 mmHg 66%
18:00 +12°C° 0 mm 3 m/S 546 mmHg 74%
19:00 +11°C° 0 mm 3 m/S 546 mmHg 82%
20:00 +9°C° 0 mm 2 m/S 545 mmHg 91%
21:00 +9°C° 0 mm 2 m/S 545 mmHg 92%
22:00 +10°C° 0 mm 1 m/S 545 mmHg 93%
23:00 +9°C° 0 mm 1 m/S 545 mmHg 94%

19 Juli, Sonntag

Zeit Temperatur Niederschläge Wind Luftdruck Luftfeuchtigkeit
00:00 +9°C° 0 mm 1 m/S 545 mmHg 94%
01:00 +9°C° 0 mm 1 m/S 545 mmHg 94%
02:00 +8°C° 0 mm 0 m/S 544 mmHg 94%
03:00 +7°C° 0 mm 0 m/S 544 mmHg 93%
04:00 +7°C° 0 mm 0 m/S 544 mmHg 92%
05:00 +7°C° 0 mm 0 m/S 544 mmHg 92%
06:00 +9°C° 0 mm 0 m/S 545 mmHg 82%
07:00 +11°C° 0 mm 0 m/S 547 mmHg 73%
08:00 +14°C° 0 mm 0 m/S 548 mmHg 63%
09:00 +16°C° 0.1 mm 1 m/S 549 mmHg 58%
10:00 +19°C° 0.1 mm 1 m/S 549 mmHg 53%
11:00 +19°C° 0.1 mm 2 m/S 550 mmHg 48%
12:00 +19°C° 1.2 mm 3 m/S 549 mmHg 55%
13:00 +18°C° 1.2 mm 3 m/S 548 mmHg 61%
14:00 +17°C° 1.2 mm 4 m/S 548 mmHg 67%
15:00 +15°C° 1.2 mm 4 m/S 547 mmHg 72%
16:00 +14°C° 1.2 mm 4 m/S 547 mmHg 77%
17:00 +13°C° 1.2 mm 4 m/S 546 mmHg 82%
18:00 +12°C° 0.6 mm 3 m/S 546 mmHg 85%
19:00 +12°C° 0.6 mm 2 m/S 546 mmHg 89%
20:00 +11°C° 0.6 mm 1 m/S 546 mmHg 92%
21:00 +11°C° 0.1 mm 1 m/S 546 mmHg 92%
22:00 +11°C° 0.1 mm 1 m/S 546 mmHg 93%
23:00 +11°C° 0.1 mm 1 m/S 546 mmHg 93%

20 Juli, Montag

Zeit Temperatur Niederschläge Wind Luftdruck Luftfeuchtigkeit
00:00 +10°C° 0 mm 1 m/S 545 mmHg 93%
01:00 +10°C° 0 mm 1 m/S 545 mmHg 93%
02:00 +10°C° 0 mm 1 m/S 545 mmHg 93%
03:00 +10°C° 0 mm 1 m/S 545 mmHg 94%
04:00 +9°C° 0 mm 1 m/S 545 mmHg 94%
05:00 +9°C° 0 mm 1 m/S 545 mmHg 94%
06:00 +11°C° 0 mm 1 m/S 546 mmHg 86%
07:00 +13°C° 0 mm 1 m/S 547 mmHg 79%
08:00 +14°C° 0 mm 0 m/S 548 mmHg 72%
09:00 +16°C° 0.5 mm 1 m/S 548 mmHg 66%
10:00 +18°C° 0.5 mm 2 m/S 549 mmHg 61%
11:00 +19°C° 0.5 mm 3 m/S 550 mmHg 56%
12:00 +19°C° 1.4 mm 4 m/S 549 mmHg 60%
13:00 +18°C° 1.4 mm 4 m/S 548 mmHg 64%
14:00 +17°C° 1.4 mm 5 m/S 547 mmHg 68%
15:00 +17°C° 0.8 mm 4 m/S 547 mmHg 71%
16:00 +15°C° 0.8 mm 4 m/S 546 mmHg 74%
17:00 +14°C° 0.8 mm 3 m/S 546 mmHg 78%
18:00 +13°C° 0.3 mm 3 m/S 546 mmHg 82%
19:00 +13°C° 0.3 mm 2 m/S 546 mmHg 87%
20:00 +12°C° 0.3 mm 2 m/S 546 mmHg 92%
21:00 +10°C° 0 mm 2 m/S 545 mmHg 92%
22:00 +11°C° 0 mm 1 m/S 545 mmHg 92%
23:00 +11°C° 0 mm 1 m/S 545 mmHg 92%
Mehr zeigen